Flight Track Log - Related Links

Times and Time Zones

All times are in EDT time to prevent confusion due to time zone crossing. See the N315CJ flight status page for this flight to view local times or setup timezone preferences in your user account.

Time Position Orientation Groundspeed Altitude Reporting Facility
EDT Latitude Longitude Course Direction KTS MPH feet Rate Location/Type
06:51AM 42.6211 -83.9683 121° Southeast 143 165 1,600  Level Cleveland Center
06:52AM 42.5997 -83.9194 121° Southeast 165 190 3,100 909 Climbing Cleveland Center
06:53AM 42.5858 -83.8750 113° Southeast 171 197 3,100 885 Level Cleveland Center
06:53AM 42.5603 -83.8653 164° South 211 243 4,000 2,164 Climbing Cleveland Center
06:54AM 42.5314 -83.8572 168° South 196 226 5,300 2,656 Climbing Cleveland Center
06:54AM 42.5006 -83.8536 175° South 231 266 6,700 3,049 Climbing Cleveland Center
06:55AM 42.4647 -83.8486 174° South 236 272 8,400 3,100 Climbing Cleveland Center
06:55AM 42.4278 -83.8456 177° South 271 312 9,800 2,806 Climbing Cleveland Center
06:56AM 42.3903 -83.8436 178° South 265 305 11,300 2,836 Climbing Cleveland Center
06:56AM 42.3589 -83.8408 176° South 279 321 12,400 1,770 Climbing Cleveland Center
06:57AM 42.3122 -83.8386 178° South 281 323 13,100 590 Climbing Cleveland Center
06:57AM 42.2778 -83.8344 175° South 298 343 13,000  Descending Cleveland Center
06:58AM 42.2114 -83.8303 177° South 304 350 13,100  Climbing Cleveland Center
06:58AM 42.1942 -83.8306 181° South 304 350 13,000  Descending Cleveland Center
06:59AM 42.1311 -83.8247 176° South 297 342 13,100 55 Climbing Cleveland Center
07:00AM 42.0528 -83.8175 176° South 290 334 13,100  Level Cleveland Center
07:01AM 41.9731 -83.8125 177° South 290 334 13,100 1,024 Level Cleveland Center
07:02AM 41.8939 -83.8069 177° South 287 330 15,200 2,195 Climbing Cleveland Center
07:03AM 41.8114 -83.7997 176° South 292 336 17,600 2,780 Climbing Cleveland Center
07:04AM 41.7125 -83.7928 177° South 298 343 20,900 2,927 Climbing Cleveland Center
07:05AM 41.6414 -83.8247 199° South 277 319 23,600 2,488 Climbing Cleveland Center
07:06AM 41.5761 -83.8756 210° Southwest 273 314 26,000 2,262 Climbing Cleveland Center
07:07AM 41.5119 -83.9250 210° Southwest 267 307 28,200 2,000 Climbing Cleveland Center
07:08AM 41.4483 -83.9761 211° Southwest 267 307 30,100 1,805 Climbing Cleveland Center
07:09AM 41.3858 -84.0258 211° Southwest 265 305 31,900 927 Climbing Cleveland Center
07:10AM 41.3206 -84.0747 209° Southwest 271 312 32,000 49 Climbing Cleveland Center
07:11AM 41.2522 -84.1489 219° Southwest 313 360 32,000  Level Cleveland Center
07:12AM 41.2111 -84.2828 248° West 324 373 32,000  Level Cleveland Center
07:13AM 41.1825 -84.3942 251° West 322 371 32,000  Level Cleveland Center
07:14AM 41.1539 -84.5097 252° West 327 376 32,000  Level Cleveland Center
07:15AM 41.1236 -84.6281 251° West 331 381 32,000  Level Cleveland Center
07:16AM 41.0931 -84.7453 251° West 334 384 32,000  Level Cleveland Center
07:17AM 41.0419 -84.8489 237° Southwest 340 391 32,000  Level Cleveland Center
07:18AM 40.9386 -84.8969 199° South 337 388 32,000  Level Chicago Center
07:19AM 40.8461 -84.9225 192° South 340 391 32,000  Level Chicago Center
07:20AM 40.7556 -84.9497 193° South 339 390 32,000  Level Chicago Center
07:22AM 40.5953 -85.0500 205° Southwest 326 375 32,000  Level Chicago Center
07:23AM 40.5147 -85.1056 208° Southwest 328 377 32,000  Level Indianapolis Center
07:24AM 40.4319 -85.1619 207° Southwest 329 379 32,000  Level Indianapolis Center
07:25AM 40.3517 -85.2164 207° Southwest 329 379 32,000  Level Indianapolis Center
07:26AM 40.2711 -85.2719 208° Southwest 329 379 32,000  Level Indianapolis Center
07:27AM 40.1889 -85.3267 207° Southwest 329 379 32,000  Level Indianapolis Center
07:28AM 40.1081 -85.3819 208° Southwest 329 379 32,000 -488 Level Indianapolis Center
07:29AM 40.0267 -85.4375 208° Southwest 329 379 31,000 -984 Descending Indianapolis Center
07:30AM 39.9297 -85.5017 207° Southwest 329 379 30,000 -1,038 Descending Indianapolis Center
07:33AM 39.7689 -85.6092 207° Southwest 322 371 27,800 -1,082 Descending Chicago Center
07:33AM 39.6886 -85.6628 207° Southwest 326 375 26,700 -1,248 Descending Indianapolis Center
07:38AM 39.3164 -85.9086 207° Southwest 294 338 20,500 -1,300 Descending FlightAware ADS-B (KCVG)
07:39AM 39.2787 -85.9333 207° Southwest 283 326 19,700 -1,310 Descending FlightAware ADS-B (KCVG)
07:40AM 39.2131 -85.9762 207° Southwest 276 318 18,600 -1,109 Descending FlightAware ADS-B (KCVG)
07:40AM 39.1759 -86.0006 207° Southwest 276 318 18,000 -981 Descending FlightAware ADS-B (KCVG)
07:42AM 39.0822 -86.0618 207° Southwest 278 320 16,000 -1,000 Descending FlightAware ADS-B (KCVG)
07:44AM 38.9503 -86.1478 207° Southwest 277 319 14,700 -1,059 Descending Indianapolis Center
07:45AM 38.8822 -86.1919 207° Southwest 277 319 13,600 -1,073 Descending Indianapolis Center
07:46AM 38.8081 -86.1614 162° South 297 342 12,500 -1,122 Descending Indianapolis Center
07:47AM 38.7494 -86.0708 130° Southeast 319 367 11,300 -1,230 Descending Indianapolis Center
07:48AM 38.6922 -85.9792 129° Southeast 325 374 10,000 -1,090 Descending Indianapolis Center
07:54AM 38.3668 -85.4977 153° Southeast 212 244 3,200 -913 Descending FlightAware ADS-B
07:55AM 38.3122 -85.4871 226° Southwest 168 193 3,200 -98 Level FlightAware ADS-B
07:56AM 38.2881 -85.5335 240° Southwest 121 139 3,000 -353 Descending FlightAware ADS-B
07:57AM 38.2745 -85.5633 239° Southwest 92 106 2,500 -583 Descending FlightAware ADS-B
07:58AM 38.2667 -85.5833 215° Southwest 94 108 2,000 -563 Descending Louisville TRACON
07:58AM 38.2606 -85.5932 239° Southwest 93 107 1,900 -316 Descending FlightAware ADS-B
08:00AM 38.2280 -85.6637 226° Southwest  Level Estimated
08:03AM 38.2167 -85.6500 215° Southwest  Level FlightAware Approximate
08:07AM 38.2280 -85.6637 215° Southwest  Level Estimated

Login

Don't have an account? Register now (free) for customized features, flight alerts, and more!